2016-03-30 00:05:35 r, 19.85m,0000000001Hz,0000472368c,0000001.025s, 016.7C,00002191
2016-03-30 00:15:34 r, 19.89m,0000000001Hz,0000491622c,0000001.067s, 016.7C,00002191
2016-03-30 00:25:35 r, 19.85m,0000000001Hz,0000474345c,0000001.029s, 016.7C,00002191
2016-03-30 00:35:34 r, 19.49m,0000000001Hz,0000341857c,0000000.742s, 016.7C,00002191
2016-03-30 00:45:35 r, 19.54m,0000000001Hz,0000356123c,0000000.773s, 017.0C,00002191
2016-03-30 00:55:34 r, 19.57m,0000000002Hz,0000364617c,0000000.791s, 017.0C,00002191
2016-03-30 01:05:34 r, 20.11m,0000000001Hz,0000605819c,0000001.315s, 017.0C,00002191
2016-03-30 01:15:34 r, 20.07m,0000000001Hz,0000579604c,0000001.258s, 016.7C,00002191
2016-03-30 01:25:36 r, 20.22m,0000000001Hz,0000669686c,0000001.453s, 016.7C,00002191
2016-03-30 01:35:34 r, 20.46m,0000000000Hz,0000831437c,0000001.804s, 016.4C,00002191
2016-03-30 01:45:34 r, 20.98m,0000000000Hz,0001340457c,0000002.909s, 016.1C,00002191
2016-03-30 01:55:35 r, 21.00m,0000000000Hz,0001351776c,0000002.934s, 015.7C,00002191
2016-03-30 02:05:35 r, 20.96m,0000000000Hz,0001306964c,0000002.836s, 015.1C,00002191
2016-03-30 02:15:34 r, 20.90m,0000000001Hz,0001232737c,0000002.675s, 014.5C,00002191
2016-03-30 02:25:35 r, 20.77m,0000000000Hz,0001103401c,0000002.395s, 014.1C,00002191
2016-03-30 02:35:35 r, 20.79m,0000000000Hz,0001120192c,0000002.431s, 014.1C,00002191
2016-03-30 02:45:35 r, 20.72m,0000000001Hz,0001046492c,0000002.271s, 013.8C,00002191
2016-03-30 02:55:35 r, 20.65m,0000000001Hz,0000983848c,0000002.135s, 013.8C,00002191
2016-03-30 03:05:35 r, 20.62m,0000000000Hz,0000950753c,0000002.063s, 013.5C,00002191
2016-03-30 03:15:35 r, 20.56m,0000000001Hz,0000908391c,0000001.971s, 013.5C,00002191
2016-03-30 03:25:34 r, 20.52m,0000000000Hz,0000873401c,0000001.895s, 013.2C,00002191
2016-03-30 03:35:34 r, 20.45m,0000000001Hz,0000815542c,0000001.770s, 012.8C,00002191
2016-03-30 03:45:35 r, 20.43m,0000000001Hz,0000800691c,0000001.738s, 012.5C,00002191
2016-03-30 03:55:35 r, 20.40m,0000000000Hz,0000780086c,0000001.693s, 012.5C,00002191
2016-03-30 04:05:34 r, 20.37m,0000000000Hz,0000761477c,0000001.653s, 012.5C,00002191
2016-03-30 04:15:35 r, 20.37m,0000000001Hz,0000756172c,0000001.641s, 012.2C,00002191
2016-03-30 04:25:35 r, 20.35m,0000000000Hz,0000742711c,0000001.612s, 012.2C,00002191
2016-03-30 04:35:35 r, 20.32m,0000000001Hz,0000724516c,0000001.572s, 011.9C,00002191
2016-03-30 04:45:35 r, 20.29m,0000000001Hz,0000706656c,0000001.534s, 011.9C,00002191
2016-03-30 04:55:35 r, 20.26m,0000000000Hz,0000686161c,0000001.489s, 011.9C,00002191
2016-03-30 05:05:35 r, 20.24m,0000000001Hz,0000673125c,0000001.461s, 011.6C,00002191
2016-03-30 05:15:34 r, 20.20m,0000000001Hz,0000652516c,0000001.416s, 011.6C,00002191
2016-03-30 05:25:35 r, 20.13m,0000000000Hz,0000618137c,0000001.341s, 011.6C,00002191
2016-03-30 05:35:35 r, 20.05m,0000000001Hz,0000571222c,0000001.240s, 011.2C,00002191
2016-03-30 05:45:35 r, 19.88m,0000000001Hz,0000485775c,0000001.054s, 011.2C,00002191
2016-03-30 05:55:35 r, 19.46m,0000000001Hz,0000330110c,0000000.716s, 011.2C,00002191
2016-03-30 06:05:35 r, 18.55m,0000000004Hz,0000143977c,0000000.312s, 011.2C,00002191
2016-03-30 06:15:34 r, 17.29m,0000000010Hz,0000045228c,0000000.098s, 011.2C,00002191
2016-03-30 06:25:35 r, 15.57m,0000000050Hz,0000009263c,0000000.020s, 010.9C,00002191
2016-03-30 06:35:35 r, 13.42m,0000000363Hz,0000000000c,0000000.000s, 010.9C,00002191
2016-03-30 06:45:34 r, 11.35m,0000002438Hz,0000000000c,0000000.000s, 010.6C,00002191
2016-03-30 06:55:35 r, 09.49m,0000013524Hz,0000000000c,0000000.000s, 010.6C,00002191
2016-03-30 07:05:35 r, 08.03m,0000051788Hz,0000000000c,0000000.000s, 010.6C,00002191
2016-03-30 07:15:34 r, 07.05m,0000127514Hz,0000000000c,0000000.000s, 010.6C,00002191
2016-03-30 07:25:35 r, 06.40m,0000232833Hz,0000000000c,0000000.000s, 010.6C,00002191
2016-03-30 07:35:36 r, 05.95m,0000354178Hz,0000000000c,0000000.000s, 011.2C,00002191
2016-03-30 07:45:35 r, 00.00m,0000470552Hz,0000000000c,0000000.000s, 012.2C,00002191
2016-03-30 07:55:35 r, 00.00m,0000565065Hz,0000000000c,0000000.000s, 013.5C,00002191
2016-03-30 08:05:35 r, 00.00m,0000596281Hz,0000000000c,0000000.000s, 014.5C,00002191
2016-03-30 08:15:35 r, 00.00m,0000596238Hz,0000000000c,0000000.000s, 015.7C,00002191
2016-03-30 08:25:35 r, 00.00m,0000596075Hz,0000000000c,0000000.000s, 017.0C,00002191
2016-03-30 08:35:35 r, 00.00m,0000596113Hz,0000000000c,0000000.000s, 017.7C,00002191
2016-03-30 08:45:35 r, 00.00m,0000596075Hz,0000000000c,0000000.000s, 018.3C,00002191
2016-03-30 08:55:35 r, 00.00m,0000595967Hz,0000000000c,0000000.000s, 019.3C,00002191
2016-03-30 09:05:35 r, 00.00m,0000595782Hz,0000000000c,0000000.000s, 020.3C,00002191
2016-03-30 09:15:35 r, 00.00m,0000595789Hz,0000000000c,0000000.000s, 020.9C,00002191
2016-03-30 09:25:34 r, 00.00m,0000595758Hz,0000000000c,0000000.000s, 021.5C,00002191
2016-03-30 09:35:37 r, 00.00m,0000595550Hz,0000000000c,0000000.000s, 022.5C,00002191
2016-03-30 09:45:35 r, 00.00m,0000595413Hz,0000000000c,0000000.000s, 023.5C,00002191
2016-03-30 09:55:35 r, 00.00m,0000595434Hz,0000000000c,0000000.000s, 024.8C,00002191
2016-03-30 10:05:35 r, 00.00m,0000595330Hz,0000000000c,0000000.000s, 025.4C,00002191
2016-03-30 10:15:35 r, 00.00m,0000595222Hz,0000000000c,0000000.000s, 026.1C,00002191
2016-03-30 10:25:35 r, 00.00m,0000595194Hz,0000000000c,0000000.000s, 027.0C,00002191
2016-03-30 10:35:36 r, 00.00m,0000595096Hz,0000000000c,0000000.000s, 027.3C,00002191
2016-03-30 10:45:35 r, 00.00m,0000594905Hz,0000000000c,0000000.000s, 028.3C,00002191
2016-03-30 10:55:34 r, 00.00m,0000594790Hz,0000000000c,0000000.000s, 029.3C,00002191
2016-03-30 11:05:35 r, 00.00m,0000594704Hz,0000000000c,0000000.000s, 029.9C,00002191
2016-03-30 11:15:34 r, 00.00m,0000594630Hz,0000000000c,0000000.000s, 030.9C,00002191
2016-03-30 11:25:35 r, 00.00m,0000594593Hz,0000000000c,0000000.000s, 031.9C,00002191
2016-03-30 11:35:36 r, 00.00m,0000594472Hz,0000000000c,0000000.000s, 032.8C,00002191
2016-03-30 11:45:35 r, 00.00m,0000594405Hz,0000000000c,0000000.000s, 033.5C,00002191
2016-03-30 11:55:35 r, 00.00m,0000594225Hz,0000000000c,0000000.000s, 034.1C,00002191
2016-03-30 12:05:35 r, 00.00m,0000594132Hz,0000000000c,0000000.000s, 034.4C,00002191
2016-03-30 12:15:35 r, 00.00m,0000594139Hz,0000000000c,0000000.000s, 034.8C,00002191
2016-03-30 12:25:34 r, 00.00m,0000594190Hz,0000000000c,0000000.000s, 034.4C,00002191
2016-03-30 12:35:35 r, 00.00m,0000594118Hz,0000000000c,0000000.000s, 034.8C,00002191
2016-03-30 12:45:35 r, 00.00m,0000594072Hz,0000000000c,0000000.000s, 035.1C,00002191
2016-03-30 12:55:35 r, 00.00m,0000593996Hz,0000000000c,0000000.000s, 035.1C,00002191
2016-03-30 13:05:35 r, 00.00m,0000593935Hz,0000000000c,0000000.000s, 035.4C,00002191
2016-03-30 13:15:35 r, 00.00m,0000594063Hz,0000000000c,0000000.000s, 035.1C,00002191
2016-03-30 13:25:34 r, 00.00m,0000594304Hz,0000000000c,0000000.000s, 033.5C,00002191
2016-03-30 13:35:35 r, 00.00m,0000594389Hz,0000000000c,0000000.000s, 032.5C,00002191
2016-03-30 13:45:35 r, 00.00m,0000594500Hz,0000000000c,0000000.000s, 031.5C,00002191
2016-03-30 13:55:34 r, 00.00m,0000594703Hz,0000000000c,0000000.000s, 030.2C,00002191
2016-03-30 14:05:35 r, 00.00m,0000594768Hz,0000000000c,0000000.000s, 029.6C,00002191
2016-03-30 14:15:35 r, 00.00m,0000594600Hz,0000000000c,0000000.000s, 029.9C,00002191
2016-03-30 14:25:35 r, 00.00m,0000594594Hz,0000000000c,0000000.000s, 030.6C,00002191
2016-03-30 14:35:35 r, 00.00m,0000594645Hz,0000000000c,0000000.000s, 030.2C,00002191
2016-03-30 14:45:35 r, 00.00m,0000594669Hz,0000000000c,0000000.000s, 030.2C,00002191
2016-03-30 14:55:35 r, 00.00m,0000594483Hz,0000000000c,0000000.000s, 031.5C,00002191
2016-03-30 15:05:35 r, 00.00m,0000594433Hz,0000000000c,0000000.000s, 032.2C,00002191
2016-03-30 15:15:35 r, 00.00m,0000594513Hz,0000000000c,0000000.000s, 031.9C,00002191
2016-03-30 15:25:35 r, 00.00m,0000594645Hz,0000000000c,0000000.000s, 031.2C,00002191
2016-03-30 15:35:35 r, 00.00m,0000594525Hz,0000000000c,0000000.000s, 030.6C,00002191
2016-03-30 15:45:35 r, 00.00m,0000594540Hz,0000000000c,0000000.000s, 031.2C,00002191
2016-03-30 15:55:35 r, 00.00m,0000594462Hz,0000000000c,0000000.000s, 031.2C,00002191
2016-03-30 16:05:36 r, 00.00m,0000594506Hz,0000000000c,0000000.000s, 031.2C,00002191
2016-03-30 16:15:35 r, 00.00m,0000594580Hz,0000000000c,0000000.000s, 031.5C,00002191
2016-03-30 16:25:35 r, 00.00m,0000594620Hz,0000000000c,0000000.000s, 031.2C,00002191
2016-03-30 16:35:36 r, 00.00m,0000594707Hz,0000000000c,0000000.000s, 030.2C,00002191
2016-03-30 16:45:35 r, 00.00m,0000594818Hz,0000000000c,0000000.000s, 029.0C,00002191
2016-03-30 16:55:35 r, 00.00m,0000595044Hz,0000000000c,0000000.000s, 027.7C,00002191
2016-03-30 17:05:35 r, 00.00m,0000595160Hz,0000000000c,0000000.000s, 027.0C,00002191
2016-03-30 17:15:35 r, 00.00m,0000595098Hz,0000000000c,0000000.000s, 026.7C,00002191
2016-03-30 17:25:35 r, 00.00m,0000595200Hz,0000000000c,0000000.000s, 026.1C,00002191
2016-03-30 17:35:35 r, 00.00m,0000595204Hz,0000000000c,0000000.000s, 025.7C,00002191
2016-03-30 17:45:35 r, 00.00m,0000595195Hz,0000000000c,0000000.000s, 025.7C,00002191
2016-03-30 17:55:35 r, 00.00m,0000595177Hz,0000000000c,0000000.000s, 025.7C,00002191
2016-03-30 18:05:35 r, 00.00m,0000595200Hz,0000000000c,0000000.000s, 025.1C,00002191
2016-03-30 18:15:35 r, 00.00m,0000595208Hz,0000000000c,0000000.000s, 025.4C,00002191
2016-03-30 18:25:35 r, 00.00m,0000595223Hz,0000000000c,0000000.000s, 025.1C,00002191
2016-03-30 18:35:35 r, 00.00m,0000595321Hz,0000000000c,0000000.000s, 024.4C,00002191
2016-03-30 18:45:35 r, 00.00m,0000595511Hz,0000000000c,0000000.000s, 024.1C,00002191
2016-03-30 18:55:35 r, 00.00m,0000595465Hz,0000000000c,0000000.000s, 023.5C,00002191
2016-03-30 19:05:35 r, 00.00m,0000595479Hz,0000000000c,0000000.000s, 023.2C,00002191
2016-03-30 19:15:35 r, 00.00m,0000595540Hz,0000000000c,0000000.000s, 022.8C,00002191
2016-03-30 19:25:35 r, 00.00m,0000595664Hz,0000000000c,0000000.000s, 022.2C,00002191
2016-03-30 19:35:35 r, 00.00m,0000409287Hz,0000000000c,0000000.000s, 021.5C,00002191
2016-03-30 19:45:35 r, 06.42m,0000228742Hz,0000000000c,0000000.000s, 020.9C,00002191
2016-03-30 19:55:35 r, 07.36m,0000095836Hz,0000000000c,0000000.000s, 019.9C,00002191
2016-03-30 20:05:35 r, 08.67m,0000028796Hz,0000000000c,0000000.000s, 019.3C,00002191
2016-03-30 20:15:35 r, 10.31m,0000006340Hz,0000000000c,0000000.000s, 018.6C,00002191
2016-03-30 20:25:35 r, 12.32m,0000000999Hz,0000000000c,0000000.000s, 017.7C,00002191
2016-03-30 20:35:35 r, 14.49m,0000000135Hz,0000000000c,0000000.000s, 017.4C,00002191
2016-03-30 20:45:35 r, 16.55m,0000000020Hz,0000022884c,0000000.050s, 017.0C,00002191
2016-03-30 20:55:35 r, 18.02m,0000000005Hz,0000088196c,0000000.191s, 016.4C,00002191
2016-03-30 21:05:35 r, 19.04m,0000000002Hz,0000225643c,0000000.490s, 016.1C,00002191
2016-03-30 21:15:35 r, 19.81m,0000000001Hz,0000455916c,0000000.989s, 016.1C,00002191
2016-03-30 21:25:35 r, 20.18m,0000000000Hz,0000641247c,0000001.392s, 015.7C,00002191
2016-03-30 21:35:35 r, 20.80m,0000000000Hz,0001123472c,0000002.438s, 015.7C,00002191
2016-03-30 21:45:35 r, 20.87m,0000000000Hz,0001198311c,0000002.601s, 015.7C,00002191
2016-03-30 21:55:35 r, 20.87m,0000000000Hz,0001205840c,0000002.617s, 015.7C,00002191
2016-03-30 22:05:35 r, 20.88m,0000000000Hz,0001216984c,0000002.641s, 015.7C,00002191
2016-03-30 22:15:37 r, 20.89m,0000000000Hz,0001221547c,0000002.651s, 015.7C,00002191
2016-03-30 22:25:35 r, 20.87m,0000000001Hz,0001201559c,0000002.608s, 015.7C,00002191
2016-03-30 22:35:35 r, 20.90m,0000000000Hz,0001233394c,0000002.677s, 015.7C,00002191
2016-03-30 22:45:35 r, 20.87m,0000000001Hz,0001198387c,0000002.601s, 015.7C,00002191
2016-03-30 22:55:35 r, 20.81m,0000000001Hz,0001141209c,0000002.477s, 015.4C,00002191
2016-03-30 23:05:35 r, 20.85m,0000000000Hz,0001182169c,0000002.565s, 015.4C,00002191
2016-03-30 23:15:35 r, 20.88m,0000000000Hz,0001219317c,0000002.646s, 015.1C,00002191
2016-03-30 23:25:35 r, 20.58m,0000000000Hz,0000917618c,0000001.991s, 015.1C,00002191
2016-03-30 23:35:35 r, 20.56m,0000000000Hz,0000908907c,0000001.972s, 015.1C,00002191
2016-03-30 23:45:35 r, 20.50m,0000000001Hz,0000858869c,0000001.864s, 014.8C,00002191
2016-03-30 23:55:35 r, 20.73m,0000000000Hz,0001061510c,0000002.304s, 014.8C,00002191
